GW2402 Weather Reports


Display with metric or nautical units.
time (UTC)temp
F
wind
direction
speed
MPH
gust
MPH
rain 1hr
in
rain 24hr
in
rain mn
in
humidity
%
barometer
mb
20260905061554 81 0 0.0 0.0 0.00 0.00 0.00 81 1013.6
20260905060059 81 0 0.0 0.0 0.00 0.00 0.00 80 1013.5
20260905054554 81 0 0.0 0.0 0.00 0.00 0.00 80 1013.6
20260905053117 81 0 0.0 0.0 0.00 0.00 0.00 79 1013.5
20260905051547 82 0 0.0 0.0 0.00 0.00 0.00 78 1013.7
20260905050059 82 0 0.0 0.0 0.00 0.00 0.00 78 1013.6
20260905044555 82 0 0.0 0.0 0.00 0.00 0.00 77 1013.5
20260905043049 82 0 0.0 1.0 0.00 0.00 0.00 77 1013.5
20260905041558 82 0 0.0 0.0 0.00 0.00 0.00 76 1013.5
20260905040055 83 0 0.0 0.0 0.00 0.00 0.00 76 1013.5
20260905034552 83 0 0.0 0.0 0.00 0.00 0.00 75 1013.5
20260905033059 83 0 0.0 0.0 0.00 0.00 0.00 74 1013.6
20260905031556 83 0 0.0 0.0 0.00 0.00 0.00 73 1013.3
20260905030053 84 0 0.0 0.0 0.00 0.00 0.00 73 1013.2
20260905024605 84 0 0.0 0.0 0.00 0.00 0.00 72 1012.9
20260905023052 84 0 0.0 0.0 0.00 0.00 0.00 71 1013.0
20260905021600 85 0 0.0 0.0 0.00 0.00 0.00 69 1012.9
20260905020106 85 0 0.0 0.0 0.00 0.00 0.00 70 1012.7
20260905014558 85 0 0.0 0.0 0.00 0.00 0.00 71 1012.6
20260905013049 86 0 0.0 0.0 0.00 0.00 0.00 70 1012.5
20260905011551 86 0 0.0 1.0 0.00 0.00 0.00 68 1012.4
20260905010055 87 0 0.0 1.0 0.00 0.00 0.00 68 1012.1
20260905004557 88 0 0.0 1.0 0.00 0.00 0.00 67 1011.8
20260905003050 88 150 0.0 1.0 0.00 0.00 0.00 66 1011.6
20260905001549 89 0 0.0 1.0 0.00 0.00 0.00 64 1011.7
20260905000057 89 0 0.0 1.0 0.00 0.00 0.00 62 1011.5
20260904234558 90 0 0.0 1.0 0.00 0.00 0.00 61 1011.4
20260904233052 90 133 0.0 0.0 0.00 0.00 0.00 61 1011.7
20260904231548 91 208 0.0 1.0 0.00 0.00 0.00 61 1011.7
20260904230057 91 0 0.0 1.0 0.00 0.00 0.00 60 1011.6
20260904224606 91 240 0.0 1.0 0.00 0.00 0.00 61 1011.6
20260904223052 93 92 0.0 2.0 0.00 0.00 0.00 59 1012.0
20260904221600 94 0 0.0 3.0 0.00 0.00 0.00 53 1011.8
20260904220057 93 0 0.0 2.0 0.00 0.00 0.00 56 1011.9
20260904214552 93 0 0.0 3.0 0.00 0.00 0.00 58 1012.1
20260904213050 92 260 0.0 3.0 0.00 0.00 0.00 58 1012.1
20260904211547 91 0 0.0 2.0 0.00 0.00 0.00 59 1012.8
20260904210052 90 0 0.0 3.0 0.00 0.00 0.00 64 1012.6
20260904204559 88 0 0.0 0.0 0.00 0.00 0.00 68 1012.7
20260904203050 88 0 0.0 0.0 0.00 0.00 0.00 70 1013.0
20260904201633 87 0 0.0 1.0 0.00 0.00 0.00 72 1013.4
20260904200107 86 0 0.0 0.0 0.00 0.00 0.00 75 1013.6
20260904194605 85 0 0.0 0.0 0.00 0.00 0.00 79 1013.6
20260904193052 84 0 0.0 0.0 0.00 0.00 0.00 79 1013.7
20260904191601 85 0 0.0 2.0 0.00 0.00 0.00 76 1014.1
20260904190059 85 0 0.0 1.0 0.00 0.00 0.00 73 1014.3
20260904184557 85 281 0.0 1.0 0.00 0.00 0.00 74 1014.4
20260904183048 85 0 0.0 0.0 0.00 0.00 0.00 78 1014.6
20260904181557 85 0 0.0 1.0 0.00 0.00 0.00 78 1014.7
20260904180047 85 0 0.0 0.0 0.00 0.00 0.00 80 1014.7
20260904174556 84 0 0.0 0.0 0.00 0.00 0.00 81 1014.7
20260904173111 84 0 0.0 1.0 0.00 0.00 0.00 81 1014.8
20260904171609 84 0 0.0 0.0 0.00 0.00 0.00 82 1015.0
20260904170058 83 0 0.0 0.0 0.00 0.00 0.00 83 1015.1
20260904164557 83 0 0.0 0.0 0.00 0.00 0.00 84 1015.2
20260904163053 83 0 0.0 1.0 0.00 0.00 0.00 84 1015.0
20260904161602 83 0 0.0 1.0 0.00 0.00 0.00 85 1014.8
20260904160055 83 0 0.0 1.0 0.00 0.00 0.00 86 1014.7
20260904154556 82 47 0.0 0.0 0.00 0.00 0.00 88 1014.6
20260904153049 81 0 0.0 1.0 0.00 0.00 0.00 88 1014.6
20260904151547 81 0 0.0 1.0 0.00 0.00 0.00 89 1014.3
20260904150121 81 0 0.0 1.0 0.00 0.00 0.00 90 1014.3
20260904144551 81 283 0.0 3.0 0.00 0.00 0.00 89 1014.5
20260904143048 80 25 0.0 2.0 0.00 0.00 0.00 89 1014.3
20260904141617 81 0 0.0 2.0 0.00 0.00 0.00 89 1014.3
20260904140055 81 0 0.0 1.0 0.00 0.00 0.00 89 1014.4
20260904134557 81 0 0.0 0.0 0.00 0.00 0.00 88 1014.3
20260904133049 81 0 0.0 0.0 0.00 0.00 0.00 88 1014.4
20260904131557 80 0 0.0 0.0 0.00 0.00 0.00 88 1014.2
20260904130054 80 0 0.0 0.0 0.00 0.00 0.00 88 1014.0
20260904124554 80 0 0.0 0.0 0.00 0.00 0.00 88 1013.9
20260904123053 80 0 0.0 0.0 0.00 0.00 0.00 88 1013.7
20260904121548 80 0 0.0 0.0 0.00 0.00 0.00 88 1013.5
20260904120107 80 0 0.0 0.0 0.00 0.00 0.00 88 1013.3
20260904114548 80 0 0.0 0.0 0.00 0.00 0.00 88 1013.2
20260904113100 80 0 0.0 0.0 0.00 0.00 0.00 87 1013.3
20260904111548 80 0 0.0 0.0 0.00 0.00 0.00 87 1013.3
20260904110045 80 0 0.0 0.0 0.00 0.00 0.00 87 1013.2
20260904104548 80 0 0.0 0.0 0.00 0.00 0.00 86 1013.0
20260904103054 81 0 0.0 0.0 0.00 0.00 0.00 86 1012.9
20260904101549 81 0 0.0 0.0 0.00 0.00 0.00 86 1012.8
20260904100056 81 0 0.0 0.0 0.00 0.00 0.00 86 1012.8
20260904094548 81 0 0.0 0.0 0.00 0.00 0.00 86 1012.6
20260904093103 81 0 0.0 0.0 0.00 0.00 0.00 86 1012.5
20260904091548 81 0 0.0 0.0 0.00 0.00 0.00 86 1012.7
20260904090048 81 0 0.0 0.0 0.00 0.00 0.00 85 1012.5
20260904084555 81 0 0.0 1.0 0.00 0.00 0.00 85 1012.5
20260904083050 81 0 0.0 1.0 0.00 0.00 0.00 85 1012.6
20260904081547 81 0 0.0 1.0 0.00 0.00 0.00 85 1012.6
20260904080045 81 0 0.0 1.0 0.00 0.00 0.00 84 1012.4
20260904074551 82 0 0.0 1.0 0.00 0.00 0.00 84 1012.7
20260904073050 82 0 0.0 1.0 0.00 0.00 0.00 83 1012.6
20260904071547 82 0 0.0 1.0 0.00 0.00 0.00 83 1012.9
20260904070101 82 0 0.0 2.0 0.00 0.00 0.00 82 1013.1
20260904064553 82 0 0.0 1.0 0.00 0.00 0.00 82 1013.1
20260904063048 82 0 0.0 1.0 0.00 0.00 0.00 81 1013.1